Voltar ao catálogo

STARLINK-35051

AtivoComunicaçõesSSO
NORAD 65380·PAYLOAD·🇺🇸 United States

Lançado Aug 30, 2025 de Vandenberg Space Force Base

Loading…

Próximas Passagens (próximas 24 horas)

TLE

AtualizadoSource: CelesTrak SupGP

Época: Sep 14, 2026, 15:04 UTC

1 65380C 25191B   26257.62826389  .00016329  00000+0  50681-3 0  2576
2 65380  97.2836 123.7146 0001934  90.6407  30.8717 15.33435818    14

Acompanhe STARLINK-35051 em tempo real com AllMySat

Download on the App Store